FW8807 Weather Reports


time (UTC)temp
F
wind
direction
speed
knots
gust
knots
rain 1hr
in
rain 24hr
in
rain mn
in
humidity
%
barometer
mb
20260504223017 55 0.0 0.0 0.00 0.14 0.06 93 1023.8
20260504222017 55 0.0 0.9 0.01 0.14 0.06 92 1023.7
20260504221019 54 0.0 2.6 0.01 0.14 0.06 93 1023.7
20260504220018 54 0.0 0.0 0.01 0.14 0.06 92 1023.5
20260504215018 54 0.0 0.0 0.01 0.14 0.06 92 1023.5
20260504214039 54 0.0 0.0 0.01 0.14 0.06 92 1023.4
20260504213038 54 0.0 0.0 0.01 0.14 0.06 92 1023.3
20260504212019 54 0.0 0.0 0.01 0.25 0.05 92 1023.1
20260504211017 54 0.0 0.0 0.01 0.25 0.05 92 1023.0
20260504210019 54 0.0 0.0 0.01 0.25 0.05 92 1022.7
20260504205017 54 0.0 0.0 0.01 0.25 0.05 92 1022.6
20260504204019 54 0.0 0.0 0.01 0.25 0.05 92 1022.6
20260504203017 54 0.0 0.0 0.01 0.25 0.05 92 1022.6
20260504202018 54 0.0 0.0 0.00 0.25 0.04 92 1022.5
20260504201017 54 0.0 0.0 0.00 0.25 0.04 92 1022.4
20260504200017 54 0.0 0.0 0.00 0.25 0.04 92 1022.3
20260504195019 54 0.0 0.0 0.00 0.25 0.04 92 1022.4
20260504194018 54 0.0 0.0 0.00 0.25 0.04 92 1022.3
20260504193037 54 0.0 0.0 0.00 0.25 0.04 92 1022.2
20260504192017 53 0.0 0.0 0.00 0.28 0.04 92 1022.1
20260504191019 53 0.0 0.0 0.02 0.28 0.04 91 1022.0
20260504190038 53 0.0 0.0 0.02 0.28 0.04 91 1022.0
20260504185017 54 0.0 0.0 0.02 0.28 0.04 91 1022.0
20260504184017 54 0.0 0.0 0.02 0.28 0.04 91 1021.9
20260504183017 54 0.0 0.0 0.02 0.28 0.04 91 1021.9
20260504182017 54 0.0 0.0 0.02 0.28 0.04 91 1021.8
20260504181017 54 0.0 0.0 0.01 0.27 0.02 91 1021.7
20260504180037 54 0.0 0.0 0.01 0.27 0.02 91 1021.7
20260504175017 54 0.0 0.0 0.00 0.26 0.02 91 1021.8
20260504174200 54 0.0 0.0 0.00 0.26 0.02 91 1021.8
20260504173039 54 0.0 0.0 0.01 0.26 0.02 91 1021.8
20260504172018 53 0.0 0.0 0.02 0.26 0.02 91 1021.9
20260504171017 53 0.0 0.0 0.02 0.26 0.02 90 1021.9
20260504151037 54 0.0 0.0 0.00 0.40 0.00 89 1021.9
20260504141019 54 0.0 0.0 0.00 0.40 0.40 88 1021.4
20260504081016 61 270 0.9 5.2 0.00 0.46 0.34 71 1017.8
20260504045016 66 270 3.5 9.6 0.00 0.50 0.34 66 1016.0
20260504044016 66 225 3.5 11.3 0.00 0.50 0.34 64 1015.9
20260504043016 66 248 3.5 13.0 0.00 0.50 0.34 65 1015.9
20260504042016 66 248 3.5 11.3 0.00 0.50 0.34 65 1015.7
20260504041018 66 248 3.5 8.7 0.00 0.50 0.34 66 1015.8
20260504040037 65 248 2.6 8.7 0.00 0.50 0.34 68 1015.7
20260504035016 65 225 2.6 9.6 0.00 0.50 0.34 69 1015.8
20260504034016 65 225 3.5 11.3 0.00 0.50 0.34 68 1015.8
20260504033018 65 248 2.6 12.2 0.00 0.50 0.34 70 1015.7
20260504032018 64 248 2.6 9.6 0.00 0.50 0.34 71 1015.7
20260504031039 64 248 2.6 10.4 0.00 0.50 0.34 73 1015.8
20260504030018 64 248 2.6 7.8 0.00 0.50 0.34 73 1015.8
20260504025018 64 248 2.6 8.7 0.00 0.50 0.34 74 1015.9
20260504024018 64 225 2.6 7.0 0.00 0.50 0.34 74 1015.9
20260504023041 64 248 3.5 8.7 0.00 0.50 0.34 72 1015.9
20260504022018 64 248 2.6 7.8 0.00 0.50 0.34 75 1016.0
20260504021018 63 270 1.7 5.2 0.00 0.50 0.34 76 1016.0
20260504020040 63 248 2.6 8.7 0.00 0.50 0.34 75 1016.0
20260504015038 63 225 2.6 7.0 0.00 0.50 0.34 74 1015.9
20260504014020 64 180 3.5 7.8 0.00 0.50 0.34 75 1015.8
20260504013018 63 248 3.5 9.6 0.00 0.50 0.34 79 1015.7
20260504012040 62 248 3.5 9.6 0.00 0.50 0.34 80 1015.7
20260504011018 62 270 3.5 9.6 0.00 0.50 0.34 82 1015.6
20260504010038 61 248 2.6 7.8 0.00 0.50 0.34 84 1015.5
20260504005018 61 270 2.6 8.7 0.00 0.50 0.34 87 1015.4
20260504004018 60 225 2.6 7.0 0.00 0.50 0.34 88 1015.4
20260504003018 59 270 3.5 8.7 0.02 0.50 0.34 89 1015.3
20260504002018 59 270 2.6 8.7 0.02 0.50 0.34 89 1015.2
20260504001018 59 270 1.7 7.8 0.02 0.50 0.34 90 1015.1
20260504000018 59 248 0.9 5.2 0.02 0.50 0.34 90 1015.0
20260503235017 59 248 0.9 3.5 0.02 0.50 0.34 90 1014.9
20260503234018 59 270 1.7 7.8 0.02 0.50 0.34 90 1014.8
20260503233100 59 270 2.6 11.3 0.01 0.48 0.32 90 1014.7
20260503232018 58 270 0.9 5.2 0.00 0.47 0.31 91 1014.4
20260503231018 58 270 0.9 2.6 0.00 0.47 0.31 91 1014.4
20260503230020 57 270 0.9 5.2 0.00 0.47 0.31 91 1014.2
20260503225018 57 0.0 0.9 0.00 0.47 0.31 91 1014.1
20260503224038 56 270 0.9 8.7 0.00 0.47 0.31 90 1014.0